Weather History for Houma, LA

Change the Weather History Date:

Friday, March 15, 2013

  Actual Average Record
Temperature  
Mean Temperature 55 °F -  
Max Temperature 69 °F 73 °F 85 °F (1955)
Min Temperature 41 °F 53 °F 30 °F (1988)
Degree Days  
Heating Degree Days 10    
Growing Degree Days 5 (Base 50)    
Moisture  
Dew Point 46 °F    
Average Humidity 81    
Maximum Humidity 100    
Minimum Humidity 38    
Precipitation  
Precipitation 0.00 in - - ()
Sea Level Pressure  
Sea Level Pressure 30.25 in    
Wind  
Wind Speed 2 mph (SSE)    
Max Wind Speed 13 mph    
Max Gust Speed -    
Visibility 8 miles    
Events      
Averages and records for this station are not official NWS values.
T = Trace of Precipitation, MM = Missing Value Source: NWS Daily Summary

Daily Weather History Graph

Daily Weather History Graph

Search for Another Location

Airport:

Trip Planner

Search our weather history database for the weather conditions in past years. The results will help you decide how hot, cold, wet, or windy it might be!

Date:

Astronomy

Mar. 15, 2013 Rise Set
Actual Time 7:12 AM CDT 7:11 PM CDT
Civil Twilight 6:48 AM CDT 7:34 PM CDT
Nautical Twilight 6:20 AM CDT 8:02 PM CDT
Astronomical Twilight 5:52 AM CDT 8:30 PM CDT
Moon 9:22 AM CDT (3/15) 11:03 PM CDT (3/15)
Length of Visible Light 12h 46m
Length of Day
11h 59m
Waxing Crescent, 15% of the Moon is Illuminated
Mar 15
Waxing Crescent
Mar 19
First Quarter
Mar 27
Full
Apr 2
Last Quarter
Apr 10
New

Hourly Weather History & Observations

Time (CDT) Temp. Dew Point Humidity Pressure Visibility Wind Dir Wind Speed Gust Speed Precip Events Conditions
12:15 AM 45.9 °F 43.0 °F 90% 30.33 in 10.0 mi Calm Calm - N/A   Clear
12:35 AM 46.4 °F 45.3 °F 96% 30.33 in 5.0 mi Calm Calm - N/A   Clear
12:55 AM 44.1 °F 43.0 °F 96% 30.33 in 10.0 mi Calm Calm - N/A   Clear
1:35 AM 45.0 °F 43.5 °F 95% 30.32 in 7.0 mi Calm Calm - N/A   Clear
1:55 AM 43.7 °F 42.8 °F 97% 30.31 in 10.0 mi Calm Calm - N/A   Clear
2:15 AM 43.7 °F 42.8 °F 97% 30.30 in 7.0 mi Calm Calm - N/A   Clear
2:35 AM 43.2 °F 42.6 °F 98% 30.30 in 5.0 mi Calm Calm - N/A   Clear
2:55 AM 44.1 °F 43.9 °F 99% 30.29 in 7.0 mi Calm Calm - N/A   Clear
3:15 AM 43.9 °F 43.9 °F 100% 30.28 in 4.0 mi Calm Calm - N/A   Clear
3:35 AM 42.1 °F 42.1 °F 100% 30.27 in 2.5 mi Calm Calm - N/A   Clear
4:15 AM 41.5 °F 41.5 °F 100% 30.27 in 7.0 mi Calm Calm - N/A   Clear
4:35 AM 42.6 °F 42.6 °F 100% 30.27 in 7.0 mi Calm Calm - N/A   Clear
4:55 AM 43.3 °F 43.3 °F 100% 30.27 in 7.0 mi Calm Calm - N/A   Clear
5:15 AM 43.0 °F 42.6 °F 99% 30.27 in 7.0 mi Calm Calm - N/A   Clear
5:35 AM 42.3 °F 42.3 °F 100% 30.27 in 5.0 mi Calm Calm - N/A   Clear
5:50 AM 42.8 °F 42.8 °F 100% 30.28 in 6.0 mi Calm Calm - N/A   Clear
6:50 AM 42.8 °F 42.8 °F 100% 30.29 in 6.0 mi Calm Calm - N/A   Clear
7:50 AM 42.8 °F 42.8 °F 100% 30.32 in 6.0 mi Calm Calm - N/A   Clear
8:50 AM 55.4 °F 53.6 °F 94% 30.32 in 7.0 mi SSE 5.8 mph - N/A   Clear
9:50 AM 62.6 °F 51.8 °F 68% 30.31 in 7.0 mi SSE 9.2 mph - N/A   Clear
10:50 AM 66.2 °F 50.0 °F 56% 30.32 in 7.0 mi SSE 6.9 mph - N/A   Clear
11:50 AM 68.0 °F 48.2 °F 49% 30.31 in 7.0 mi SSE 10.4 mph - N/A   Clear
12:50 PM 69.8 °F 50.0 °F 49% - 7.0 mi SSE 11.5 mph - N/A   Clear
1:50 PM 69.8 °F 46.4 °F 43% - 7.0 mi SSE 11.5 mph - N/A   Clear
2:50 PM 69.8 °F 44.6 °F 40% - 7.0 mi SSE 12.7 mph - N/A   Clear
3:50 PM 69.8 °F 44.6 °F 40% - 7.0 mi SSE 12.7 mph - N/A   Clear
4:50 PM 69.8 °F 44.6 °F 40% 30.18 in 7.0 mi South 8.1 mph - N/A   Clear
5:50 PM 69.8 °F 42.8 °F 38% 30.18 in 7.0 mi South 8.1 mph - N/A   Clear
6:48 PM 66.2 °F 46.4 °F 49% 30.16 in 7.0 mi South 5.8 mph - N/A   Clear
7:15 PM 63.5 °F 47.5 °F 56% 30.16 in 10.0 mi South 5.8 mph - N/A   Clear
7:35 PM 62.2 °F 48.2 °F 60% 30.17 in 7.0 mi SSW 3.5 mph - N/A   Clear
7:55 PM 61.3 °F 48.2 °F 62% 30.17 in 10.0 mi Calm Calm - N/A   Clear
8:15 PM 59.5 °F 48.4 °F 67% 30.17 in 10.0 mi Calm Calm - N/A   Clear
8:35 PM 54.5 °F 48.4 °F 80% 30.17 in 10.0 mi Calm Calm - N/A   Clear
8:55 PM 54.5 °F 49.1 °F 82% 30.18 in 10.0 mi Calm Calm - N/A   Clear
9:15 PM 53.8 °F 49.1 °F 84% 30.18 in 10.0 mi Calm Calm - N/A   Clear
9:35 PM 53.1 °F 48.9 °F 86% 30.19 in 10.0 mi Calm Calm - N/A   Clear
9:55 PM 52.5 °F 48.2 °F 85% 30.19 in 7.0 mi Calm Calm - N/A   Clear
10:15 PM 50.4 °F 47.5 °F 90% 30.19 in 10.0 mi Calm Calm - N/A   Clear
10:35 PM 50.0 °F 48.0 °F 93% 30.19 in 10.0 mi Calm Calm - N/A   Clear
10:55 PM 50.2 °F 48.4 °F 94% 30.19 in 10.0 mi Calm Calm - N/A   Clear
11:15 PM 49.5 °F 48.2 °F 95% 30.19 in 7.0 mi Calm Calm - N/A   Clear
11:35 PM 50.4 °F 49.1 °F 95% 30.19 in 7.0 mi Calm Calm - N/A   Clear